AZERSPACE 1

Last updated on Thu Mar 05 2026 00:02:57 GMT+0000 (Coordinated Universal Time)

1 39079U 13006B 26063.29905912 .00000121 00000+0 00000+0 0 9994 2 39079 0.0381 277.8189 0000960 83.6647 314.2023 1.00275032 47751
UTC large
Height (km)
Speed (km/s)
/
Latitude / Longitude
Inclination (degrees)
Orbital Period (minutes)
Azimuth
Elevation
Range (km)
Doppler Factor

Next 0 passes for location: London (51.5072 / 0.1276)

Sorry there are no passes over London.